[[{"header":{"parameterUnit":"m.s-1","parameterCategory":1,"la1":30.2991,"la2":30.254,"lo1":-89.0895,"lo2":-89.0444,"dy":0.0017,"dx":0.0017,"nx":28,"ny":28,"refTime":"2023-07-28T09:00:00:Z","depth":0,"parameterNumber":2,"parameterNumberName":"U-component_of_WINDS"},"data":[0,0,0,0,0,0,0,0,0,0,0,0,0,0,0,0,0,0,0,0,0,0,0,0,0,0,0,0,0,0,0,0,0,0,0,0,0,0,0,0,0,0,0,0,0,0,0,0,0,0,0,0,0,0,0,0,0,0,2.3602,2.3603,0,2.3676,2.3677,2.3678,2.3693,2.3692,2.3692,2.3691,2.3767,2.377,2.3772,0,0,0,0,0,0,0,0,0,0,0,0,0,2.3476,2.3478,2.3602,2.3603,2.3604,2.3676,2.3677,2.3678,2.3693,2.3692,2.3691,2.3691,2.3766,2.3769,2.3772,0,0,0,0,0,0,0,0,0,0,0,0,0,2.3538,2.3479,2.3602,2.362,2.3622,2.3676,2.3677,2.3678,2.3693,2.3692,2.3691,2.369,2.3765,2.3769,2.3773,2.3813,0,0,2.3784,2.3786,0,0,0,0,0,0,0,0,2.3535,2.3543,2.3616,2.3619,2.3622,2.3674,2.366,2.3724,2.3693,2.3666,2.3691,2.369,2.3737,2.3743,2.3759,2.3817,2.382,2.3785,2.3787,2.3789,2.379,0,0,0,0,0,0,0,2.353,2.354,2.3631,2.3618,2.3621,2.3625,2.3633,2.3672,2.3705,2.3668,2.367,2.3678,2.3738,2.3755,2.3761,2.3821,2.3785,2.3788,2.379,2.3792,2.3919,2.392,0,0,0,0,0,0,2.3523,2.3536,2.3629,2.3634,2.3575,2.3628,2.3637,2.3658,2.3705,2.3711,2.3679,2.3679,2.3749,2.3756,2.3763,2.3815,2.3789,2.3792,2.3795,2.3918,2.3919,2.392,0,0,0,0,0,0,2.352,2.3531,2.3626,2.3585,2.3598,2.3631,2.3655,2.366,2.3677,2.3713,2.3719,2.369,2.3749,2.3758,2.3801,2.3818,2.3794,2.3798,2.3917,2.3918,2.392,2.3918,0,0,0,0,0,0,2.3516,2.353,2.3545,2.3585,2.36,2.3662,2.3656,2.3662,2.3684,2.3684,2.3725,2.3731,2.3749,2.3796,2.3805,2.3823,2.3801,2.3915,2.3917,2.3919,2.3917,2.392,2.3922,0,0,0,0,0,2.3512,2.3541,2.3545,2.3557,2.3619,2.3663,2.3671,2.3691,2.3685,2.3701,2.3724,2.373,2.3815,2.38,2.3811,2.383,2.3914,2.3917,2.3919,2.3916,2.3919,2.3922,0,0,0,0,0,0,2.3501,2.3547,2.3552,2.3596,2.3625,2.3665,2.3686,2.3694,2.3726,2.3725,2.3748,2.3757,2.3799,2.3819,2.3802,2.3873,2.3864,2.3869,2.3858,2.3861,2.3864,2.3858,2.3804,0,0,0,0,0,2.3504,2.3535,2.3574,2.3608,2.3623,2.3652,2.3672,2.3685,2.3716,2.3729,2.3755,2.3786,2.382,2.3842,2.3875,2.392,2.393,2.3939,2.3941,2.3943,2.3947,2.3974,2.3978,2.3928,2.3928,2.3928,0,0,2.351,2.3539,2.3557,2.3607,2.3632,2.3664,2.3662,2.3696,2.3721,2.3734,2.3777,2.3798,2.3834,2.3879,2.39,2.3896,2.3963,2.3946,2.3948,2.395,2.3977,2.3981,2.3986,2.393,2.393,2.3929,0,0,2.3538,2.3562,2.3595,2.362,2.3657,2.3677,2.3684,2.3724,2.3738,2.3782,2.3793,2.3823,2.388,2.3906,2.3927,2.3967,2.3973,2.3977,2.3989,2.4015,2.4019,2.4023,2.4038,2.4043,2.398,2.3981,2.3981,0,2.354,2.3589,2.361,2.3644,2.3667,2.3681,2.3714,2.3738,2.3784,2.3799,2.3795,2.3869,2.3894,2.3946,2.3956,2.3972,2.3982,2.3972,2.4017,2.4021,2.4024,2.4039,2.4044,2.3981,2.3981,2.3981,2.3981,0,2.3591,2.3625,2.3647,2.3692,2.3717,2.375,2.3777,2.38,2.3811,2.3831,2.3876,2.3908,2.3948,2.3961,2.3972,2.4015,2.4012,2.4012,2.4004,2.4029,2.4043,2.4049,2.3981,2.3981,2.3981,2.3981,0,0,2.3612,2.367,2.3678,2.3699,2.3742,2.3769,2.3805,2.3844,2.3864,2.3896,2.3926,2.3976,2.3977,2.4,2.4015,2.4037,2.4068,2.4035,2.4036,2.404,2.4118,2.4118,2.4124,2.4073,2.4074,2.4075,2.4115,0,2.3645,2.3708,2.3729,2.3781,2.3813,2.3828,2.3859,2.389,2.391,2.3941,2.3964,2.3999,2.3997,2.4011,2.4035,2.4059,2.4084,2.4057,2.4102,2.4103,2.4092,2.4131,2.413,2.4166,2.4121,2.4122,2.4123,0,2.3692,2.3725,2.378,2.3822,2.3836,2.3863,2.3902,2.3931,2.3967,2.398,2.4008,2.4021,2.4059,2.4049,2.4103,2.4084,2.4104,2.4119,2.4121,2.4126,2.4114,2.4137,2.4178,2.4184,2.4131,2.4131,2.413,0,2.3702,2.3761,2.3802,2.382,2.3869,2.3888,2.3909,2.3944,2.3967,2.4001,2.4017,2.4055,2.4076,2.4106,2.413,2.412,2.4182,2.4174,2.4194,2.4194,2.4206,2.4205,2.4251,2.4219,2.4219,2.4219,2.4219,0,2.3737,2.377,2.3808,2.3833,2.3872,2.3896,2.3934,2.3956,2.3987,2.4018,2.4033,2.4062,2.4091,2.4124,2.4143,2.4185,2.4195,2.4207,2.4211,2.4205,2.4204,2.4218,2.4216,2.422,2.422,2.422,2.422,0,2.3754,2.3781,2.3827,2.387,2.3882,2.3908,2.3945,2.3971,2.3993,2.4031,2.4042,2.4076,2.4116,2.4142,2.4193,2.4206,2.4251,2.4256,2.4239,2.4241,2.4261,2.4259,2.4318,2.4327,2.4289,2.4289,2.429,0,2.3774,2.38,2.3847,2.3868,2.389,2.3924,2.3948,2.3974,2.3999,2.4043,2.4063,2.4104,2.4137,2.42,2.423,2.4269,2.4274,2.4293,2.428,2.4274,2.4275,2.4273,2.4276,2.4294,2.4294,2.4295,2.4295,0,2.3807,2.382,2.3853,2.3893,2.3921,2.3953,2.3985,2.4002,2.4034,2.4061,2.4102,2.4128,2.418,2.422,2.4263,2.4285,2.4296,2.4299,2.4306,2.4299,2.4289,2.4295,2.4244,2.4297,2.4297,2.4297,2.4296,2.4296,2.3827,2.3851,2.3888,2.3926,2.3953,2.3983,2.401,2.4036,2.407,2.4114,2.4128,2.417,2.4207,2.4265,2.4289,2.4323,2.4321,2.4331,2.4334,2.4336,2.4336,2.4284,2.4331,2.4331,2.4331,2.4331,2.4331,0,2.3861,2.3885,2.392,2.3965,2.3995,2.4003,2.4039,2.4064,2.4101,2.4135,2.4168,2.4216,2.4255,2.4289,2.433,2.4351,2.4357,2.4361,2.436,2.4365,2.4335,2.4325,2.4356,2.4356,2.4356,2.4356,2.4356,2.4356,2.3882,2.3924,2.3941,2.3997,2.4022,2.4064,2.4084,2.4113,2.414,2.4192,2.4225,2.4247,2.4281,2.4326,2.4363,2.4372,2.4386,2.439,2.44,2.437,2.4367,2.4364,2.4355,2.4392,2.4393,2.4427,2.4428,2.4428]},{"header":{"parameterUnit":"m.s-1","parameterCategory":1,"la1":30.2991,"la2":30.254,"lo1":-89.0895,"lo2":-89.0444,"dy":0.0017,"dx":0.0017,"nx":28,"ny":28,"refTime":"2023-07-28T09:00:00:Z","depth":0,"parameterNumber":3,"parameterNumberName":"V-component_of_WINDS"},"data":[0,0,0,0,0,0,0,0,0,0,0,0,0,0,0,0,0,0,0,0,0,0,0,0,0,0,0,0,0,0,0,0,0,0,0,0,0,0,0,0,0,0,0,0,0,0,0,0,0,0,0,0,0,0,0,0,0,0,-0.9297,-0.9297,0,-0.9305,-0.9305,-0.9305,-0.9301,-0.9301,-0.9301,-0.93,-0.9307,-0.9308,-0.9308,0,0,0,0,0,0,0,0,0,0,0,0,0,-0.9278,-0.9278,-0.9297,-0.9297,-0.9297,-0.9305,-0.9305,-0.9305,-0.9301,-0.9301,-0.9301,-0.93,-0.9307,-0.9308,-0.9308,0,0,0,0,0,0,0,0,0,0,0,0,0,-0.9286,-0.9278,-0.9297,-0.9296,-0.9296,-0.9305,-0.9305,-0.9305,-0.9301,-0.9301,-0.9301,-0.93,-0.9307,-0.9308,-0.9308,-0.9318,0,0,-0.931,-0.931,0,0,0,0,0,0,0,0,-0.9286,-0.9287,-0.9296,-0.9296,-0.9296,-0.9302,-0.9301,-0.9309,-0.9301,-0.9299,-0.93,-0.93,-0.9306,-0.9306,-0.9308,-0.9318,-0.9318,-0.931,-0.931,-0.931,-0.9311,0,0,0,0,0,0,0,-0.9285,-0.9286,-0.93,-0.9296,-0.9296,-0.9295,-0.9296,-0.9303,-0.9304,-0.9299,-0.9299,-0.93,-0.9306,-0.9308,-0.9309,-0.9319,-0.931,-0.931,-0.9311,-0.9311,-0.9339,-0.9339,0,0,0,0,0,0,-0.9285,-0.9286,-0.93,-0.93,-0.929,-0.9296,-0.9297,-0.93,-0.9304,-0.9304,-0.93,-0.93,-0.9307,-0.9308,-0.9309,-0.9322,-0.931,-0.9311,-0.9311,-0.9338,-0.9339,-0.9339,0,0,0,0,0,0,-0.9284,-0.9286,-0.93,-0.9293,-0.9295,-0.9297,-0.9301,-0.9301,-0.9303,-0.9305,-0.9305,-0.9303,-0.9307,-0.9308,-0.9316,-0.9322,-0.9311,-0.9312,-0.9338,-0.9339,-0.9339,-0.9347,0,0,0,0,0,0,-0.9284,-0.9286,-0.9289,-0.9293,-0.9295,-0.9307,-0.9301,-0.9301,-0.9304,-0.9304,-0.9307,-0.9307,-0.9307,-0.9315,-0.9317,-0.9322,-0.9312,-0.9337,-0.9338,-0.9339,-0.9346,-0.9348,-0.9349,0,0,0,0,0,-0.9283,-0.9291,-0.929,-0.9291,-0.93,-0.9307,-0.9308,-0.9308,-0.9305,-0.9308,-0.931,-0.9307,-0.9321,-0.9316,-0.9318,-0.9324,-0.9337,-0.9338,-0.9339,-0.9346,-0.9348,-0.9349,0,0,0,0,0,0,-0.9286,-0.9291,-0.929,-0.9299,-0.9303,-0.9306,-0.9311,-0.931,-0.9314,-0.9313,-0.9313,-0.9314,-0.9322,-0.9324,-0.9318,-0.9334,-0.9329,-0.933,-0.9333,-0.9335,-0.9336,-0.9336,-0.9313,0,0,0,0,0,-0.9288,-0.9294,-0.9298,-0.9305,-0.9307,-0.9309,-0.9312,-0.9312,-0.9316,-0.9317,-0.9319,-0.9323,-0.9328,-0.9332,-0.9336,-0.9347,-0.9348,-0.9352,-0.9353,-0.9354,-0.9355,-0.9362,-0.9365,-0.9342,-0.9342,-0.9342,0,0,-0.9292,-0.9295,-0.9299,-0.9306,-0.9309,-0.9315,-0.931,-0.9317,-0.9322,-0.9318,-0.9326,-0.9328,-0.9332,-0.9342,-0.9346,-0.9343,-0.9362,-0.9355,-0.9356,-0.9357,-0.9364,-0.9366,-0.9368,-0.9343,-0.9343,-0.9343,0,0,-0.9302,-0.9305,-0.9312,-0.9316,-0.9321,-0.9322,-0.9324,-0.9328,-0.933,-0.9338,-0.9336,-0.9342,-0.9351,-0.9354,-0.9357,-0.9371,-0.9369,-0.9373,-0.938,-0.9387,-0.9389,-0.939,-0.9397,-0.9399,-0.9374,-0.9374,-0.9374,0,-0.9306,-0.9315,-0.9316,-0.9323,-0.9327,-0.9325,-0.9333,-0.9336,-0.9343,-0.9345,-0.9342,-0.9355,-0.9357,-0.9369,-0.9372,-0.9374,-0.9377,-0.9372,-0.9389,-0.939,-0.9392,-0.9397,-0.94,-0.9374,-0.9374,-0.9374,-0.9374,0,-0.932,-0.9327,-0.9332,-0.934,-0.9344,-0.9352,-0.9354,-0.9358,-0.9358,-0.936,-0.937,-0.9373,-0.9379,-0.9382,-0.9381,-0.9394,-0.9392,-0.9389,-0.9383,-0.9394,-0.94,-0.9402,-0.9375,-0.9375,-0.9375,-0.9374,0,0,-0.9331,-0.934,-0.9342,-0.9347,-0.9353,-0.9358,-0.9366,-0.9374,-0.9378,-0.9383,-0.939,-0.9398,-0.9396,-0.94,-0.9399,-0.9406,-0.9418,-0.9402,-0.9402,-0.9406,-0.9434,-0.9436,-0.9439,-0.9417,-0.9417,-0.9417,-0.9434,0,-0.9342,-0.9357,-0.9359,-0.9372,-0.9379,-0.9378,-0.9385,-0.939,-0.9393,-0.9399,-0.9402,-0.9408,-0.9404,-0.9407,-0.9413,-0.9415,-0.9424,-0.9414,-0.9424,-0.9424,-0.9424,-0.9442,-0.9444,-0.9459,-0.9436,-0.9436,-0.9436,0,-0.9357,-0.9364,-0.9378,-0.9385,-0.9388,-0.9395,-0.9402,-0.9408,-0.9414,-0.9416,-0.9421,-0.9421,-0.9429,-0.9424,-0.9436,-0.943,-0.9434,-0.9436,-0.9437,-0.9438,-0.9431,-0.9444,-0.9464,-0.9466,-0.9439,-0.9439,-0.9439,0,-0.9365,-0.9377,-0.9388,-0.9391,-0.94,-0.9405,-0.9408,-0.9414,-0.9419,-0.9426,-0.9429,-0.9436,-0.9441,-0.9447,-0.9449,-0.9444,-0.9462,-0.9456,-0.9464,-0.9464,-0.9467,-0.9467,-0.9489,-0.9469,-0.9469,-0.9469,-0.9469,0,-0.9377,-0.9386,-0.9392,-0.9398,-0.9409,-0.9411,-0.9421,-0.9425,-0.943,-0.9438,-0.9437,-0.9444,-0.9447,-0.9454,-0.9456,-0.9467,-0.9468,-0.947,-0.9471,-0.9471,-0.9471,-0.9474,-0.9473,-0.947,-0.947,-0.947,-0.9469,0,-0.9388,-0.9392,-0.9403,-0.9411,-0.9414,-0.9421,-0.9428,-0.9434,-0.9437,-0.9447,-0.9449,-0.9454,-0.9463,-0.9466,-0.9476,-0.9478,-0.9491,-0.949,-0.949,-0.949,-0.9498,-0.9498,-0.9523,-0.9527,-0.9504,-0.9504,-0.9504,0,-0.9395,-0.9403,-0.9412,-0.9418,-0.9422,-0.943,-0.9436,-0.9439,-0.9445,-0.9454,-0.9459,-0.9469,-0.9476,-0.9491,-0.9495,-0.9504,-0.9504,-0.9512,-0.9505,-0.9505,-0.9505,-0.9505,-0.9506,-0.9513,-0.9514,-0.9514,-0.9514,0,-0.9409,-0.9412,-0.942,-0.943,-0.9437,-0.9444,-0.9451,-0.9455,-0.946,-0.9466,-0.9476,-0.9483,-0.9495,-0.9504,-0.9513,-0.9517,-0.9517,-0.9516,-0.9519,-0.9519,-0.9519,-0.952,-0.9494,-0.9516,-0.9515,-0.9515,-0.9515,-0.9515,-0.9419,-0.9426,-0.9435,-0.9444,-0.945,-0.9458,-0.9465,-0.947,-0.9478,-0.9489,-0.949,-0.9501,-0.9509,-0.9522,-0.9526,-0.9535,-0.9533,-0.9536,-0.9537,-0.9538,-0.9539,-0.9517,-0.9537,-0.9537,-0.9537,-0.9537,-0.9537,0,-0.9434,-0.944,-0.9449,-0.946,-0.9468,-0.9468,-0.9476,-0.9483,-0.9493,-0.95,-0.9509,-0.9521,-0.9531,-0.9537,-0.9547,-0.9553,-0.9553,-0.9556,-0.9556,-0.9557,-0.954,-0.9538,-0.9556,-0.9556,-0.9556,-0.9556,-0.9556,-0.9556,-0.9442,-0.9455,-0.9459,-0.9475,-0.948,-0.9492,-0.9497,-0.9504,-0.951,-0.9525,-0.9533,-0.9538,-0.9545,-0.9556,-0.9565,-0.9567,-0.9571,-0.9574,-0.9575,-0.956,-0.9558,-0.9556,-0.9553,-0.9575,-0.9575,-0.9591,-0.9592,-0.9592]}]]